This is the latest recevied weather packets stored in our database for station/object DG4MND-4. If no packets are shown the sender has not sent any weather packets the latest 10 day(s).
| Time | Temp. | Humidity | Pressure | Rain* | Wind** | Luminosity | Snow |
|---|---|---|---|---|---|---|---|
| 1777853462 | 11.11° C | 76% | 1015.3 hPa | 0 mm | - | - | - |
| 1777852855 | 11.67° C | 75% | 1015.3 hPa | 0 mm | - | - | - |
| 1777852253 | 12.22° C | 74% | 1015.4 hPa | 0 mm | - | - | - |
| 1777851649 | 12.22° C | 74% | 1015.6 hPa | 0 mm | - | - | - |
| 1777851046 | 12.78° C | 72% | 1015.6 hPa | 0 mm | - | - | - |
| 1777850442 | 12.78° C | 73% | 1015.5 hPa | 0 mm | - | - | - |
| 1777849838 | 12.78° C | 73% | 1015.4 hPa | 0 mm | - | - | - |
| 1777849235 | 12.78° C | 72% | 1015.4 hPa | 0 mm | - | - | - |
| 1777848632 | 12.78° C | 71% | 1015.6 hPa | 0 mm | - | - | - |
| 1777848028 | 12.22° C | 73% | 1015.4 hPa | 0 mm | - | - | - |
| 1777847425 | 12.22° C | 73% | 1015.2 hPa | 0 mm | - | - | - |
| 1777846824 | 12.22° C | 71% | 1015.3 hPa | 0 mm | - | - | - |
| 1777846217 | 12.22° C | 71% | 1015.3 hPa | 0 mm | - | - | - |
| 1777845678 | 12.78° C | 70% | 1015.1 hPa | 0 mm | - | - | - |
| 1777845071 | 12.78° C | 71% | 1015 hPa | 0 mm | - | - | - |
| 1777844467 | 12.78° C | 70% | 1015 hPa | 0 mm | - | - | - |
| 1777843864 | 13.33° C | 68% | 1014.8 hPa | 0 mm | - | - | - |
| 1777843260 | 13.89° C | 66% | 1014.9 hPa | 0 mm | - | - | - |
| 1777842660 | 13.89° C | 64% | 1014.8 hPa | 0 mm | - | - | - |
| 1777842053 | 14.44° C | 63% | 1014.7 hPa | 0 mm | - | - | - |
| 1777841453 | 14.44° C | 62% | 1014.6 hPa | 0 mm | - | - | - |
| 1777840852 | 14.44° C | 62% | 1014.5 hPa | 0 mm | - | - | - |
| 1777840247 | 15° C | 62% | 1014.4 hPa | 0 mm | - | - | - |
| 1777839639 | 15° C | 61% | 1014.2 hPa | 0 mm | - | - | - |
| 1777839037 | 15.56° C | 61% | 1014.2 hPa | 0 mm | - | - | - |
* Rain latest hour (hover to see other rain measurements)
** Current wind speed in m/s (hover to see current wind gust speed)